軌道要素
Epoch 2016 Apr. 2.0 TT = JDT 2457480.5
T 2016 Apr. 10.37923 TT MPCW
q 0.0455793 (2000.0) P Q
n 0.26143177 Peri. 172.55983 +0.92748896 +0.36326073
a 2.4223142 Node 165.17661 -0.35832629 +0.93118837
e 0.9811836 Incl. 20.20228 -0.10661376 +0.03049367
P 3.77
From 90 observations 1997 May 1-2012 June 30. Nongravitational parameters
A1 = +0.00, A2 = -0.0002.
|